sat.trackr.live / text

‹ back to catalog

STARLINK-37141

NORAD 68249 · 2026-054T

PAYLOAD ACTIVE UNKNOWN

§ Identity

Operator
Country
US
Launch date
2026-03-17
Launch site
AFETR
Launch vehicle
Mass (kg)
RCS (m²)

Purposes: comms

External: N2YO · Heavens-Above · Gunter

§ Orbital elements

Epoch: 2026-05-24T21:40:12.065952Z

Period
92.94 min
Inclination
53.1590°
Eccentricity
0.0000850
Mean motion
15.49336256 rev/d
Perigee alt
418.1 km
Apogee alt
419.2 km
Semi-major
6,796.8 km
B*
6.2595e-4
RAAN
299.1060°
Arg perigee
58.9053°
Mean anomaly
301.2039°
Rev number
1,071

§ Raw data

STARLINK-371411 68249U 26054T   26144.90291743  .00034552  00000+0  62595-3 0  99962 68249  53.1590 299.1060 0000850  58.9053 301.2039 15.49336256 10715

JSON: /api/v1/satellites/68249 · /tle

For live sub-satellite position, see the globe view (requires WebGL).

§ Visibility from observer

Set your observer location to see the next 7 days of passes ≥ 10°. The values pass through the URL so the page stays shareable.

No JS? Fill the form by hand. The geolocation button needs JavaScript.